Location: Skalnate Pleso
(49.1889°N, 20.2450°E)
Time: 10:15:16
(UTC+01:00)

Cosmos 1459 Rocket - Pass Details

Date: 19 November 2019
Orbit: 938 x 999 km, 83.0° (Epoch: 12 December)

Event Time Altitude Azimuth Distance (km) Brightness Sun altitude
Rises 04:14:19 0° 178° (S) 3,635 7.0 -25.9°
Reaches altitude 10° 04:16:48 10° 176° (S) 2,701 6.4 -25.5°
Maximum altitude 04:22:57 70° 95° (E) 1,042 4.2 -24.5°
Drops below altitude 10° 04:29:14 10° 13° (NNE) 2,761 6.5 -23.4°
Sets 04:31:47 0° 11° (NNE) 3,720 7.1 -23.0°
